Regional Weather Roundup
Issued by NWS

Home | Current Version | Previous Version | Graphics & Text | Print | Product List | Glossary On
Versions: 1 2 3 4 5 6 7 8 9 10 11 12 13 14 15 16 17 18 19 20 21 22 23 24 25 26 27 28 29 30 31 32 33 34 35 36 37 38 39 40 41 42 43 44 45 46 47 48 49 50
000
ASUS45 KABQ 012201
RWRNM
WEATHER ROUNDUP FOR NEW MEXICO
NATIONAL WEATHER SERVICE ALBUQUERQUE NM
400 PM MDT WED OCT 01 2014

NOTE: "FAIR" MEANS FEW OR NO CLOUDS BELOW 12,000 FEET AGL WITH NO
       SIGNIFICANT WEATHER OR OBSTRUCTIONS TO VISION.

      THIS PRODUCT IS RELEASED AS TWO VERSIONS.  ONE VERSION NEAR
      THE TOP OF THE HOUR CONTAINING PRELIMINARY DATA FROM ALBUQUERQUE
      AND OTHER STATIONS.  A FINAL VERSION WITH ADDITIONAL DATA IS
      ISSUED ABOUT 10 MINUTES AFTER THE HOUR.

NMZ501-503-504-510>518-012300-
NORTHWEST PLATEAU/NORTHCENTRAL MOUNTAINS

CITY           SKY/WX    TMP DP  RH WIND       PRES   REMARKS
FARMINGTON     SUNNY     69  36  29 NW21      29.93R
LOS ALAMOS     MOSUNNY   66  28  24 W12G18    29.98S
SANTA FE       MOSUNNY   71  27  19 W14G24    29.92F
TAOS           MOSUNNY   66  32  28 SW15G21   29.96S
ANGEL FIRE     FAIR      61  27  27 SW26G36   30.01S

$$
NMZ402-403-502-505>509-012300-
WESTCENTRAL MOUNTAINS/SOUTHWEST MOUNTAINS

CITY           SKY/WX    TMP DP  RH WIND       PRES   REMARKS
GALLUP         MOSUNNY   69  32  25 W13G22    29.99S
SILVER CITY    SUNNY     75  32  20 W21       29.98S

$$
NMZ407-409-411-412-012300-
SOUTHERN DESERTS

CITY           SKY/WX    TMP DP  RH WIND       PRES   REMARKS
LORDSBURG      FAIR      79  32  18 MISG      29.91S
DEMING         SUNNY     80  30  16 W15G25    29.90S
LAS CRUCES     SUNNY     81  26  13 SW15G23   29.91S
HOLLOMAN AFB   SUNNY     83  30  14 SW9       29.84F
ALAMOGORDO     SUNNY     82  32  16 S12G17    29.87S
T OR C         SUNNY     80  31  16 S8        29.86F

$$
NMZ519>523-012300-
CENTRAL VALLEYS/CENTRAL HIGHLANDS

CITY           SKY/WX    TMP DP  RH WIND       PRES   REMARKS
ALBUQUERQUE    MOSUNNY   77  27  15 SW21G28   29.89F
DOUBLE EAGLE   MOSUNNY   75  30  19 W20G26    29.92F
CLINES CORNERS SUNNY     69  26  20 W20G32    29.96F
BELEN          FAIR      77  32  19 SE8       29.88F
SOCORRO        FAIR      80  29  16 SE8       29.87S

$$
NMZ524>526-539-540-012300-
SOUTHCENTRAL MOUNTAINS

CITY           SKY/WX    TMP DP  RH WIND       PRES   REMARKS
RUIDOSO        NOT AVBL

$$
NMZ527>531-012300-
NORTHEAST HIGHLANDS/NORTHEAST PLAINS

CITY           SKY/WX    TMP DP  RH WIND       PRES   REMARKS
LAS VEGAS      SUNNY     70  26  19 SW20G25   29.94S
RATON          MOSUNNY   74  27  17 W16G35    29.85S
CLAYTON        SUNNY     76  28  17 S21       29.83F

$$
NMZ532>537-012300-
EASTCENTRAL PLAINS

CITY           SKY/WX    TMP DP  RH WIND       PRES   REMARKS
TUCUMCARI      SUNNY     83  36  18 W10       29.78F
CANNON AFB     SUNNY     82  37  20 W12       29.82F
CLOVIS AIRPORT   N/A     82  37  20 S15       29.84F

$$
NMZ028-029-538-012300-
SOUTHEAST PLAINS

CITY           SKY/WX    TMP DP  RH WIND       PRES   REMARKS
ROSWELL        SUNNY     82  40  22 SE6       29.80F
CARLSBAD       SUNNY     87  39  18 S10       29.78F
HOBBS          SUNNY     82  41  23 SW13      29.83F


$$


USA.gov is the U.S. government's official web portal to all federal, state and local government web resources and services.